This demonstration page uses our WeatherBlox Daily Observations layout. Learn more.

Left ArrowRight Arrow

41.86663, -103.66717

Hourly Observations for October 15, 2015

Temp ( °F °C ) Dew Point ( °F °C ) Humidity (%) Winds ( mph kmh ) Pressure ( in mb ) Visibility ( mi km ) Precip ( " mm )
12:53 am 00:53 Clear 46 7.8 37 2.8 71 71 VRB 3 6 30.07 1018 10 16 N/A
1:53 am 01:53 Clear 44 6.7 36 2.2 73 73 N N/A 30.09 1019 10 16 N/A
2:53 am 02:53 Clear 43 6.1 35 1.7 74 74 N 3 6 30.09 1019 10 16 N/A
3:53 am 03:53 Clear 39 3.9 35 1.7 86 86 N 6 9 30.12 1020 10 16 N/A
4:53 am 04:53 Clear 37 2.8 34 1.1 89 89 WNW 6 9 30.14 1021 10 16 N/A
5:53 am 05:53 Clear 38 3.3 35 1.7 89 89 NW 8 13 30.21 1023 10 16 N/A
6:53 am 06:53 Clear 36 2.2 33 0.6 89 89 WNW 6 9 30.28 1025 10 16 N/A
7:53 am 07:53 Sunny 40 4.4 36 2.2 86 86 W 6 9 30.32 1027 10 16 N/A
8:53 am 08:53 Sunny 50 10 36 2.2 59 59 WNW 3 6 30.33 1027 10 16 N/A
9:53 am 09:53 Hazy 56 13.3 35 1.7 46 46 W 7 11 30.35 1028 6 10 N/A
10:53 am 10:53 Sunny 63 17.2 28 -2.2 27 27 NE 8 13 30.34 1027 10 16 N/A
11:53 am 11:53 Sunny 65 18.3 29 -1.7 26 26 VRB 5 7 30.34 1028 10 16 N/A
12:53 pm 12:53 Sunny 65 18.3 29 -1.7 26 26 E 9 15 30.34 1027 10 16 N/A
1:53 pm 13:53 Sunny 67 19.4 31 -0.6 26 26 NNE 9 15 30.32 1027 10 16 N/A
2:53 pm 14:53 Sunny 66 18.9 29 -1.7 25 25 E 8 13 30.31 1027 10 16 N/A
3:53 pm 15:53 Sunny 66 18.9 27 -2.8 23 23 ENE 6 9 30.33 1027 10 16 N/A
4:53 pm 16:53 Sunny 63 17.2 27 -2.8 26 26 ENE 8 13 30.36 1028 10 16 N/A
5:53 pm 17:53 Sunny 56 13.3 29 -1.7 36 36 E 7 11 30.38 1029 10 16 N/A
6:53 pm 18:53 Clear 49 9.4 30 -1.1 48 48 ENE 9 15 30.43 1030 10 16 N/A
7:53 pm 19:53 Clear 49 9.4 27 -2.8 43 43 ENE 10 17 30.45 1031 10 16 N/A
8:53 pm 20:53 Clear 48 8.9 26 -3.3 42 42 E 9 15 30.45 1031 10 16 N/A
9:53 pm 21:53 Clear 43 6.1 28 -2.2 56 56 SE 7 11 30.47 1032 10 16 N/A
10:53 pm 22:53 Clear 41 5 27 -2.8 57 57 E 5 7 30.47 1032 10 16 N/A
11:53 pm 23:53 Clear 38 3.3 27 -2.8 65 65 E 8 13 30.47 1032 10 16 N/A

Powered by AerisWeather